period_start,C,m1,H,J0,J1,J2,J3,J4,J5,JA,JB,JC,JD,JJ,JK,JN,#
2016-06-16 00:02:28,-0.00,0.26,0.00,18.48,24.39,28.24,14.84,46.76,1018.09,2049.97,3494.85,3087.99,3503.40,600.38,606.52,38.43,0000 0000 0000 0000 000000
2016-06-16 00:07:29,-0.00,0.26,0.00,18.45,24.37,28.23,14.85,46.74,1018.08,2049.99,3494.96,3088.00,3503.81,599.75,605.97,38.48,0000 0000 0000 0000 000000
2016-06-16 00:12:30,0.00,0.26,0.00,18.42,24.35,28.20,14.98,46.91,1018.08,2049.98,3494.87,3088.00,3503.83,600.20,606.34,38.53,0000 0000 0000 0000 000000
2016-06-16 00:17:31,0.01,0.26,0.00,18.42,24.34,28.14,14.81,46.52,1018.08,2049.99,3494.37,3088.00,3503.34,600.05,606.23,38.58,0000 0000 0000 0000 000000
2016-06-16 00:22:32,-0.00,0.26,0.00,18.40,24.32,28.13,14.84,46.73,1018.08,2049.99,3494.50,3088.00,3503.60,599.79,606.19,38.63,0000 0000 0000 0000 000000
2016-06-16 00:27:34,-0.00,0.26,0.00,18.39,24.30,28.11,14.87,46.77,1018.08,2050.00,3494.65,3088.00,3503.84,599.99,606.21,38.69,0000 0000 0000 0000 000000
2016-06-16 00:32:35,0.00,0.26,0.00,18.37,24.28,28.01,14.83,46.72,1018.08,2050.01,3494.49,3088.00,3503.76,599.76,606.12,38.74,0000 0000 0000 0000 000000
2016-06-16 00:37:36,-0.00,0.26,0.00,18.36,24.27,28.08,14.98,46.88,1018.08,2050.02,3494.88,3088.02,3503.99,600.06,606.36,38.79,0000 0000 0000 0000 000000
2016-06-16 00:42:37,0.00,0.26,0.00,18.35,24.25,28.10,14.86,46.65,1018.06,2050.06,3494.96,3088.05,3503.98,600.39,606.72,38.84,0000 0000 0000 0000 000000
2016-06-16 00:47:39,0.00,0.26,0.00,18.35,24.23,28.09,14.88,46.79,1018.05,2050.18,3494.96,3088.06,3503.99,599.67,606.13,38.89,0000 0000 0000 0000 000000
2016-06-16 00:52:40,0.01,0.26,0.00,18.35,24.22,28.08,14.84,46.70,1017.94,2050.41,3494.99,3088.28,3503.99,599.74,606.01,38.94,0000 0000 0000 0000 000000
2016-06-16 00:57:41,0.01,0.26,0.00,18.33,24.20,27.99,14.84,46.73,1017.78,2050.64,3494.99,3088.62,3503.99,599.82,606.08,38.99,0000 0000 0000 0000 000000
2016-06-16 01:02:42,0.02,0.26,0.00,18.31,24.20,27.99,14.87,46.67,1017.80,2050.93,3494.99,3088.90,3504.02,600.12,606.50,39.04,0000 0000 0000 0000 000000
2016-06-16 01:07:43,0.00,0.26,0.00,18.31,24.17,27.98,14.78,46.63,1017.76,2050.99,3495.00,3088.97,3504.04,599.73,606.13,39.09,0000 0000 0000 0000 000000
2016-06-16 01:12:45,0.00,0.26,0.00,18.30,24.17,27.98,14.81,46.90,1017.88,2050.98,3495.01,3088.97,3504.06,599.78,606.09,39.14,0000 0000 0000 0000 000000
2016-06-16 01:17:46,-0.00,0.26,0.00,18.29,24.15,27.93,14.93,46.91,1018.04,2050.99,3495.02,3088.99,3504.27,600.26,606.75,39.19,0000 0000 0000 0000 000000
2016-06-16 01:22:47,-0.00,0.26,0.00,18.28,24.14,27.99,14.82,46.67,1018.06,2050.99,3495.06,3088.99,3504.65,599.70,606.29,39.24,0000 0000 0000 0000 000000
2016-06-16 01:27:48,-0.00,0.26,0.00,18.28,24.12,27.98,14.97,46.76,1018.08,2050.99,3495.07,3088.99,3504.92,600.15,606.72,39.29,0000 0000 0000 0000 000000
2016-06-16 01:32:49,-0.00,0.26,0.00,18.28,24.12,27.92,14.89,46.76,1018.08,2050.99,3495.13,3088.99,3504.93,599.89,606.41,39.34,0000 0000 0000 0000 000000
2016-06-16 01:37:50,0.00,0.26,0.00,18.25,24.10,27.92,14.89,46.77,1017.87,2051.00,3495.19,3088.99,3504.96,600.03,606.57,39.39,0000 0000 0000 0000 000000
2016-06-16 01:42:52,0.00,0.26,0.00,18.22,24.10,27.89,14.92,46.94,1017.63,2051.00,3495.16,3088.99,3504.98,600.61,606.83,39.44,0000 0000 0000 0000 000000
2016-06-16 01:47:53,-0.00,0.26,0.00,18.19,24.08,27.86,14.97,46.83,1017.63,2051.01,3495.24,3089.00,3504.98,600.44,606.91,39.49,0000 0000 0000 0000 000000
2016-06-16 01:52:54,0.00,0.26,0.00,18.17,24.07,27.89,14.88,46.82,1017.80,2051.01,3495.25,3089.00,3504.98,599.81,606.36,39.54,0000 0000 0000 0000 000000
2016-06-16 01:57:55,-0.00,0.26,0.00,18.18,24.07,27.89,14.99,46.95,1017.89,2051.02,3495.36,3089.00,3504.97,600.48,607.22,39.59,0000 0000 0000 0000 000000
2016-06-16 02:02:57,0.00,0.26,0.00,18.22,24.06,27.79,14.86,46.83,1017.82,2051.02,3495.34,3089.00,3504.99,599.77,606.34,39.64,0000 0000 0000 0000 000000
2016-06-16 02:07:58,0.00,0.26,0.00,18.21,24.05,27.83,14.93,46.78,1018.01,2051.09,3495.24,3089.01,3504.98,600.33,607.00,39.70,0000 0000 0000 0000 000000
2016-06-16 02:12:59,0.01,0.26,0.00,18.17,24.05,27.76,14.85,46.62,1018.06,2051.17,3495.14,3089.00,3504.98,600.11,606.89,39.75,0000 0000 0000 0000 000000
2016-06-16 02:18:01,0.03,0.26,0.00,18.19,24.05,27.82,14.93,46.86,1018.08,2051.42,3494.86,3089.00,3504.80,599.98,606.61,39.80,0000 0000 0000 0000 000000
2016-06-16 02:23:02,0.05,0.27,0.00,18.18,24.03,27.83,14.85,46.63,1018.07,2051.50,3493.33,3088.27,3504.01,599.92,606.68,39.85,0000 0000 0000 0000 000000
2016-06-16 02:28:04,0.04,0.27,0.00,18.18,24.02,27.76,14.88,46.80,1018.08,2051.56,3492.30,3088.00,3503.62,599.92,606.73,39.90,0000 0000 0000 0000 000000
2016-06-16 02:33:05,0.01,0.27,0.00,18.19,24.02,27.70,14.93,46.77,1018.08,2051.79,3492.19,3088.00,3503.68,599.93,606.64,39.95,0000 0000 0000 0000 000000
2016-06-16 02:38:06,0.00,0.27,0.00,18.19,24.02,27.78,14.82,46.88,1018.00,2051.88,3492.28,3088.00,3503.88,599.87,606.50,40.00,0000 0000 0000 0000 000000
2016-06-16 02:43:08,0.01,0.27,0.00,18.18,24.02,27.83,14.86,46.78,1017.63,2051.95,3492.07,3087.99,3503.73,599.38,605.99,40.05,0000 0000 0000 0000 000000
2016-06-16 02:48:09,0.00,0.27,0.00,18.20,24.01,27.82,14.90,46.74,1017.61,2051.95,3492.06,3087.99,3503.80,600.15,606.59,40.10,0000 0000 0000 0000 000000
2016-06-16 02:53:10,0.00,0.27,0.00,18.21,24.00,27.75,14.83,46.67,1017.66,2051.97,3492.04,3087.99,3503.71,599.79,606.27,40.15,0000 0000 0000 0000 000000
2016-06-16 02:58:11,0.00,0.27,0.00,18.24,24.00,27.74,14.93,47.00,1017.62,2051.97,3492.01,3087.99,3503.50,600.14,606.41,40.20,0000 0000 0000 0000 000000
2016-06-16 03:03:12,-0.00,0.27,0.00,18.21,24.00,27.80,14.96,47.12,1017.59,2051.97,3492.00,3087.98,3503.13,599.82,606.20,40.25,0000 0000 0000 0000 000000
2016-06-16 03:08:14,0.00,0.27,0.00,18.23,24.00,27.76,14.84,46.83,1017.59,2051.97,3492.00,3087.97,3503.10,599.80,606.22,40.30,0000 0000 0000 0000 000000
2016-06-16 03:13:15,-0.00,0.27,0.00,18.25,24.00,27.80,14.92,46.90,1017.58,2051.99,3492.00,3087.98,3503.09,600.12,606.19,40.35,0000 0000 0000 0000 000000
2016-06-16 03:18:16,0.00,0.27,0.00,18.28,24.00,27.72,14.87,46.98,1017.32,2051.97,3491.99,3087.96,3503.07,599.92,606.03,40.40,0000 0000 0000 0000 000000
2016-06-16 03:23:17,-0.00,0.27,0.00,18.30,24.00,27.76,14.89,46.92,1017.14,2051.96,3491.98,3087.95,3503.02,599.94,605.72,40.45,0000 0000 0000 0000 000000
2016-06-16 03:28:19,0.00,0.27,0.00,18.28,24.00,27.79,14.85,46.84,1017.12,2051.98,3491.97,3087.95,3503.04,600.06,605.89,40.50,0000 0000 0000 0000 000000
2016-06-16 03:33:21,0.00,0.27,0.00,18.29,24.01,27.84,14.87,47.02,1017.11,2051.98,3491.98,3087.94,3503.03,600.03,606.01,40.55,0000 0000 0000 0000 000000
2016-06-16 03:38:22,0.02,0.27,0.00,18.30,24.02,27.71,14.80,46.92,1017.13,2051.98,3491.79,3087.47,3503.00,599.77,605.77,40.60,0000 0000 0000 0000 000000
2016-06-16 03:43:23,0.01,0.27,0.00,18.31,24.02,27.72,14.90,46.94,1017.17,2051.96,3491.28,3087.07,3502.99,599.84,605.82,40.65,0000 0000 0000 0000 000000
2016-06-16 03:48:25,0.00,0.27,0.00,18.34,24.02,27.77,14.92,46.86,1017.13,2051.98,3491.19,3087.06,3502.98,600.60,606.51,40.71,0000 0000 0000 0000 000000
2016-06-16 03:53:26,0.00,0.27,0.00,18.37,24.04,27.78,14.92,46.81,1017.11,2051.96,3491.04,3087.02,3502.97,600.34,606.03,40.76,0000 0000 0000 0000 000000
2016-06-16 03:58:27,0.00,0.27,0.00,18.39,24.05,27.75,14.79,46.76,1017.11,2051.97,3491.01,3087.01,3502.94,600.14,605.70,40.81,0000 0000 0000 0000 000000
2016-06-16 04:03:28,-0.00,0.27,0.00,18.41,24.05,27.68,14.94,46.98,1017.29,2051.94,3491.00,3087.00,3502.81,600.53,606.39,40.86,0000 0000 0000 0000 000000
2016-06-16 04:08:30,0.00,0.27,0.00,18.46,24.07,27.71,14.90,46.99,1017.53,2051.93,3491.00,3087.00,3502.54,599.83,605.67,40.91,0000 0000 0000 0000 000000
2016-06-16 04:13:31,-0.00,0.27,0.00,18.46,24.07,27.61,14.87,46.90,1017.56,2051.86,3491.00,3086.99,3502.05,600.17,606.16,40.96,0000 0000 0000 0000 000000
2016-06-16 04:18:32,-0.03,0.27,0.00,18.45,24.09,27.63,14.88,46.72,1017.57,2051.51,3490.95,3086.96,3502.01,600.17,606.03,41.01,0000 0000 0000 0000 000000
2016-06-16 04:23:33,-0.01,0.27,0.00,18.49,24.10,27.63,14.83,47.05,1017.59,2051.46,3490.78,3086.83,3502.00,600.07,605.84,41.06,0000 0000 0000 0000 000000
2016-06-16 04:28:34,0.00,0.27,0.00,18.48,24.12,27.63,14.85,46.89,1017.54,2051.13,3490.43,3086.31,3501.98,599.87,605.64,41.11,0000 0000 0000 0000 000000
2016-06-16 04:33:36,-0.00,0.27,0.00,18.52,24.13,27.59,14.79,46.76,1017.35,2051.12,3490.44,3086.20,3501.97,599.75,605.43,41.16,0000 0000 0000 0000 000000
2016-06-16 04:38:37,0.00,0.27,0.00,18.55,24.15,27.73,14.86,46.88,1017.40,2051.04,3490.08,3086.04,3501.96,600.24,605.89,41.21,0000 0000 0000 0000 000000
2016-06-16 04:43:38,0.01,0.27,0.00,18.55,24.16,27.71,14.90,46.85,1017.28,2051.02,3490.02,3086.01,3501.46,599.98,605.67,41.26,0000 0000 0000 0000 000000
2016-06-16 04:48:40,0.00,0.27,0.00,18.56,24.17,27.78,14.89,46.97,1017.14,2051.01,3489.99,3086.00,3501.05,600.38,605.83,41.31,0000 0000 0000 0000 000000
2016-06-16 04:53:41,0.00,0.27,0.00,18.60,24.20,27.73,14.86,46.96,1017.12,2051.00,3489.99,3086.00,3501.01,599.75,605.08,41.36,0000 0000 0000 0000 000000
2016-06-16 04:58:43,0.00,0.27,0.00,18.60,24.21,27.66,14.78,46.79,1017.12,2051.00,3489.98,3085.97,3501.00,599.95,605.17,41.41,0000 0000 0000 0000 000000
2016-06-16 05:03:44,0.01,0.27,0.00,18.62,24.22,27.71,14.89,46.95,1017.11,2051.00,3489.79,3085.91,3501.00,600.40,605.67,41.46,0000 0000 0000 0000 000000
2016-06-16 05:08:45,0.01,0.27,0.00,18.67,24.25,27.75,14.85,46.89,1017.12,2051.00,3489.44,3085.71,3500.98,599.94,605.01,41.51,0000 0000 0000 0000 000000
2016-06-16 05:13:46,0.02,0.28,0.00,18.66,24.26,27.91,14.75,46.82,1017.11,2051.00,3489.07,3085.21,3500.81,600.25,605.44,41.56,0000 0000 0000 0000 000000
2016-06-16 05:18:48,0.00,0.28,0.00,18.69,24.27,27.82,14.87,46.92,1017.12,2050.98,3489.01,3085.03,3500.26,600.49,605.68,41.61,0000 0000 0000 0000 000000
2016-06-16 05:23:49,0.00,0.28,0.00,18.71,24.29,27.78,14.88,46.84,1017.13,2050.97,3489.00,3085.00,3500.04,600.09,605.16,41.66,0000 0000 0000 0000 000000
2016-06-16 05:28:51,-0.01,0.28,0.00,18.72,24.30,27.89,14.86,46.85,1017.26,2050.93,3488.97,3085.00,3500.00,600.01,605.27,41.72,0000 0000 0000 0000 000000
2016-06-16 05:33:52,-0.01,0.28,0.00,18.72,24.32,27.97,14.86,46.90,1017.35,2050.77,3488.99,3085.00,3500.00,599.98,605.40,41.77,0000 0000 0000 0000 000000
2016-06-16 05:38:53,-0.03,0.28,0.00,18.77,24.33,27.90,14.88,46.93,1017.52,2050.52,3488.90,3084.96,3499.99,600.20,605.39,41.82,0000 0000 0000 0000 000000
2016-06-16 05:43:55,-0.01,0.27,0.00,18.77,24.35,28.00,14.75,46.85,1017.58,2050.16,3488.30,3084.86,3499.96,599.42,604.76,41.87,0000 0000 0000 0000 000000
2016-06-16 05:48:56,0.01,0.27,0.00,18.78,24.36,27.95,14.84,46.82,1017.59,2050.07,3488.06,3084.39,3499.69,599.72,605.07,41.92,0000 0000 0000 0000 000000
2016-06-16 05:53:57,0.01,0.27,0.00,18.79,24.37,27.99,14.87,46.67,1017.56,2050.02,3488.01,3084.08,3499.22,600.40,605.49,41.97,0000 0000 0000 0000 000000
2016-06-16 05:58:58,0.00,0.27,0.00,18.81,24.39,27.89,14.84,46.94,1017.55,2050.03,3488.00,3084.03,3499.05,600.29,605.43,42.02,0000 0000 0000 0000 000000
2016-06-16 06:04:00,0.00,0.27,0.00,18.85,24.40,27.84,14.78,46.82,1017.50,2050.01,3487.92,3084.01,3499.00,599.71,604.69,42.07,0000 0000 0000 0000 000000
2016-06-16 06:09:01,0.00,0.28,0.00,18.85,24.42,27.91,14.79,46.73,1017.52,2050.00,3487.46,3083.99,3498.99,600.04,605.08,42.12,0000 0000 0000 0000 000000
2016-06-16 06:14:03,0.00,0.28,0.00,18.84,24.42,28.05,14.82,46.82,1017.49,2050.00,3487.09,3083.96,3498.90,599.87,604.83,42.17,0000 0000 0000 0000 000000
2016-06-16 06:19:04,0.01,0.28,0.00,18.87,24.45,28.03,14.77,46.70,1017.28,2050.00,3487.00,3083.77,3498.51,599.71,604.60,42.22,0000 0000 0000 0000 000000
2016-06-16 06:24:05,0.01,0.28,0.00,18.86,24.45,28.03,14.85,46.91,1017.16,2050.00,3486.99,3083.34,3498.12,599.88,604.62,42.27,0000 0000 0000 0000 000000
2016-06-16 06:29:06,0.00,0.28,0.00,18.88,24.47,28.00,14.79,46.54,1017.21,2049.98,3486.95,3083.03,3498.01,599.72,604.57,42.32,0000 0000 0000 0000 000000
2016-06-16 06:34:07,0.00,0.28,0.00,18.90,24.48,28.03,14.87,46.88,1017.15,2049.98,3486.68,3083.00,3498.00,600.01,604.93,42.37,0000 0000 0000 0000 000000
2016-06-16 06:39:08,0.00,0.28,0.00,18.92,24.50,28.11,14.85,46.60,1017.15,2049.97,3486.12,3083.00,3497.99,600.22,604.85,42.42,0000 0000 0000 0000 000000
2016-06-16 06:44:09,0.00,0.28,0.00,18.89,24.50,28.13,14.91,46.98,1017.19,2049.97,3486.03,3083.00,3497.96,600.47,605.21,42.47,0000 0000 0000 0000 000000
2016-06-16 06:49:10,-0.00,0.28,0.00,18.93,24.52,28.09,14.90,46.88,1017.19,2049.95,3486.00,3082.98,3497.85,600.36,605.09,42.52,0000 0000 0000 0000 000000
2016-06-16 06:54:12,-0.00,0.28,0.00,18.97,24.52,28.15,14.84,46.87,1017.16,2049.78,3486.00,3082.93,3497.29,600.00,604.55,42.57,0000 0000 0000 0000 000000
2016-06-16 06:59:13,-0.01,0.28,0.00,18.99,24.55,28.13,14.88,46.73,1017.14,2049.63,3485.97,3082.77,3497.02,600.06,604.50,42.62,0000 0000 0000 0000 000000
2016-06-16 07:04:14,-0.00,0.28,0.00,19.00,24.55,28.21,14.87,46.89,1017.13,2049.47,3485.97,3082.39,3497.01,600.17,604.64,42.67,0000 0000 0000 0000 000000
2016-06-16 07:09:15,-0.01,0.28,0.00,18.96,24.57,28.22,14.83,46.61,1017.13,2049.16,3485.84,3082.08,3497.00,600.19,604.79,42.72,0000 0000 0000 0000 000000
2016-06-16 07:14:17,0.00,0.28,0.00,19.00,24.57,28.18,14.76,46.62,1017.12,2049.13,3485.56,3082.04,3497.00,599.94,604.47,42.78,0000 0000 0000 0000 000000
2016-06-16 07:19:18,0.00,0.28,0.00,19.00,24.59,28.10,14.82,46.58,1017.12,2049.04,3485.10,3082.01,3496.97,599.81,604.30,42.83,0000 0000 0000 0000 000000
2016-06-16 07:24:19,0.00,0.28,0.00,18.99,24.60,28.19,14.80,46.88,1017.12,2049.04,3485.02,3082.00,3496.97,599.94,604.46,42.88,0000 0000 0000 0000 000000
2016-06-16 07:29:20,0.00,0.28,0.00,19.00,24.60,28.18,14.83,46.77,1017.14,2049.03,3485.01,3082.00,3496.85,600.07,604.71,42.93,0000 0000 0000 0000 000000
2016-06-16 07:34:21,0.00,0.28,0.00,19.02,24.62,28.16,14.76,46.59,1017.13,2049.03,3485.00,3081.99,3496.61,599.84,604.31,42.98,0000 0000 0000 0000 000000
2016-06-16 07:39:22,0.01,0.28,0.00,19.01,24.62,28.23,14.79,46.78,1017.14,2049.01,3484.98,3081.97,3496.14,599.55,604.02,43.03,0000 0000 0000 0000 000000
2016-06-16 07:44:24,0.00,0.28,0.00,19.00,24.64,28.31,14.82,46.67,1017.13,2049.00,3484.87,3081.89,3496.01,600.18,604.67,43.08,0000 0000 0000 0000 000000
2016-06-16 07:49:25,0.00,0.28,0.00,19.03,24.65,28.25,14.86,46.58,1017.15,2049.00,3484.80,3081.79,3496.00,600.20,604.65,43.13,0000 0000 0000 0000 000000
2016-06-16 07:54:27,0.03,0.28,0.00,19.03,24.66,28.23,14.82,46.77,1017.15,2049.00,3484.23,3081.22,3496.00,600.38,604.82,43.18,0000 0000 0000 0000 000000
2016-06-16 07:59:28,0.00,0.28,0.00,19.05,24.67,28.31,14.85,46.81,1017.16,2049.00,3484.01,3081.02,3495.97,600.10,604.50,43.23,0000 0000 0000 0000 000000
2016-06-16 08:04:29,0.00,0.28,0.00,19.04,24.67,28.24,14.84,46.73,1017.15,2049.00,3484.00,3081.00,3495.82,600.19,604.61,43.28,0000 0000 0000 0000 000000
2016-06-16 08:09:30,0.00,0.28,0.00,19.01,24.70,28.42,14.81,46.82,1017.13,2049.00,3483.99,3081.00,3495.82,599.81,604.23,43.33,0000 0000 0000 0000 000000
2016-06-16 08:14:31,0.01,0.28,0.00,19.03,24.70,28.45,14.96,46.94,1017.11,2048.99,3483.95,3081.00,3495.18,600.27,604.60,43.38,0000 0000 0000 0000 000000
2016-06-16 08:19:33,0.00,0.28,0.00,19.00,24.71,28.43,14.85,46.68,1017.11,2048.99,3483.91,3081.00,3495.03,599.92,604.52,43.43,0000 0000 0000 0000 000000
2016-06-16 08:24:34,0.00,0.28,0.00,19.06,24.72,28.47,14.76,46.51,1017.11,2048.98,3483.88,3080.99,3495.03,599.86,604.23,43.48,0000 0000 0000 0000 000000
2016-06-16 08:29:35,0.00,0.28,0.00,19.06,24.72,28.42,14.73,46.47,1017.11,2048.98,3483.63,3080.97,3495.02,599.63,603.90,43.53,0000 0000 0000 0000 000000
2016-06-16 08:34:37,0.04,0.28,0.00,19.05,24.73,28.43,14.83,46.67,1017.11,2048.98,3482.99,3080.42,3494.69,600.02,604.42,43.58,0000 0000 0000 0000 000000
2016-06-16 08:39:38,0.01,0.28,0.00,19.02,24.75,28.43,14.90,46.90,1017.11,2048.97,3482.36,3080.00,3494.16,599.83,604.10,43.63,0000 0000 0000 0000 000000
2016-06-16 08:44:39,0.00,0.28,0.00,19.02,24.75,28.40,14.77,46.52,1017.11,2048.97,3482.06,3080.00,3494.03,599.74,604.28,43.68,0000 0000 0000 0000 000000
2016-06-16 08:49:41,0.00,0.28,0.00,19.01,24.75,28.45,14.94,46.96,1017.11,2048.97,3482.04,3080.00,3494.02,600.36,604.73,43.73,0000 0000 0000 0000 000000
2016-06-16 08:54:42,0.00,0.28,0.00,19.01,24.76,28.44,14.90,46.84,1017.11,2048.96,3482.00,3079.98,3494.00,600.30,604.63,43.79,0000 0000 0000 0000 000000
2016-06-16 08:59:43,-0.01,0.28,0.00,19.03,24.77,28.51,14.81,46.70,1017.11,2048.93,3482.00,3079.98,3494.00,599.58,604.18,43.84,0000 0000 0000 0000 000000
2016-06-16 09:04:45,-0.00,0.28,0.00,19.06,24.77,28.50,14.79,46.60,1017.12,2048.90,3481.99,3079.96,3494.00,599.94,604.49,43.89,0000 0000 0000 0000 000000
2016-06-16 09:09:46,-0.00,0.28,0.00,19.04,24.77,28.42,14.85,46.73,1017.14,2048.90,3481.99,3079.94,3493.99,599.93,604.42,43.94,0000 0000 0000 0000 000000
2016-06-16 09:14:47,-0.01,0.28,0.00,19.05,24.77,28.47,14.87,46.76,1017.12,2048.63,3481.96,3079.61,3493.97,599.84,604.33,43.99,0000 0000 0000 0000 000000
2016-06-16 09:19:48,0.01,0.28,0.00,19.06,24.77,28.55,14.96,46.84,1017.14,2048.50,3481.79,3079.29,3493.86,599.96,604.34,44.04,0000 0000 0000 0000 000000
2016-06-16 09:24:50,0.00,0.28,0.00,19.01,24.78,28.51,14.87,46.80,1017.14,2048.45,3481.49,3079.18,3493.73,600.21,604.68,44.09,0000 0000 0000 0000 000000
2016-06-16 09:29:51,0.02,0.28,0.00,19.02,24.79,28.55,14.77,46.65,1017.14,2048.60,3481.32,3079.14,3493.68,599.60,604.11,44.14,0000 0000 0000 0000 000000
2016-06-16 09:34:52,-0.01,0.28,0.00,19.01,24.79,28.54,14.86,46.77,1017.18,2048.46,3481.12,3079.06,3493.45,600.03,604.49,44.19,0000 0000 0000 0000 000000
2016-06-16 09:39:53,0.01,0.28,0.00,19.03,24.79,28.47,14.79,46.65,1017.23,2048.46,3481.03,3079.02,3493.17,599.89,604.38,44.24,0000 0000 0000 0000 000000
2016-06-16 09:44:55,0.01,0.29,0.00,19.07,24.79,28.56,14.85,46.63,1017.19,2048.65,3481.03,3079.02,3493.17,599.63,603.95,44.29,0000 0000 0000 0000 000000
2016-06-16 09:49:56,-0.00,0.28,0.00,19.05,24.79,28.55,14.82,46.64,1017.24,2048.48,3481.00,3079.01,3493.04,599.76,604.24,44.34,0000 0000 0000 0000 000000
2016-06-16 09:54:58,-0.02,0.28,0.00,19.02,24.79,28.50,14.88,46.83,1017.31,2048.44,3481.00,3079.00,3493.03,599.89,604.40,44.39,0000 0000 0000 0000 000000
2016-06-16 09:59:59,-0.01,0.28,0.00,19.04,24.79,28.54,14.77,46.65,1017.34,2048.28,3480.97,3078.99,3492.99,600.13,604.66,44.44,0000 0000 0000 0000 000000
2016-06-16 10:05:00,-0.01,0.28,0.00,19.05,24.78,28.52,14.93,46.78,1017.30,2048.16,3480.75,3078.91,3492.85,600.74,605.33,44.49,0000 0000 0000 0000 000000
2016-06-16 10:10:01,0.01,0.28,0.00,19.03,24.78,28.54,14.81,46.72,1017.33,2048.19,3480.56,3078.89,3492.73,600.20,604.75,44.54,0000 0000 0000 0000 000000
2016-06-16 10:15:02,0.01,0.28,0.00,18.99,24.77,28.49,14.77,46.49,1017.34,2048.12,3480.38,3078.72,3492.55,599.99,604.73,44.59,0000 0000 0000 0000 000000
2016-06-16 10:20:04,0.01,0.28,0.00,19.01,24.77,28.48,14.78,46.66,1017.30,2048.26,3480.23,3078.77,3492.60,600.19,604.80,44.64,0000 0000 0000 0000 000000
2016-06-16 10:25:05,0.01,0.28,0.00,19.03,24.77,28.56,14.87,46.67,1017.22,2048.16,3480.08,3078.50,3492.29,600.17,604.76,44.69,0000 0000 0000 0000 000000
2016-06-16 10:30:06,0.02,0.29,0.00,19.00,24.77,28.47,14.83,46.68,1017.18,2048.21,3479.75,3078.10,3492.04,599.96,604.52,44.75,0000 0000 0000 0000 000000
2016-06-16 10:35:07,0.01,0.29,0.00,19.00,24.77,28.49,14.79,46.76,1017.16,2048.40,3479.60,3078.02,3492.00,599.86,604.36,44.80,0000 0000 0000 0000 000000
2016-06-16 10:40:09,0.01,0.29,0.00,18.98,24.76,28.49,14.84,46.74,1017.12,2048.43,3479.47,3078.00,3492.00,600.05,604.67,44.85,0000 0000 0000 0000 000000
2016-06-16 10:45:10,-0.02,0.29,0.00,18.99,24.75,28.54,14.85,46.87,1017.11,2048.21,3479.15,3078.00,3492.00,600.20,604.72,44.90,0000 0000 0000 0000 000000
2016-06-16 10:50:12,0.01,0.29,0.00,18.97,24.75,28.44,14.86,46.84,1017.11,2048.28,3479.05,3078.00,3492.00,600.31,604.67,44.95,0000 0000 0000 0000 000000
2016-06-16 10:55:13,0.03,0.29,0.00,18.95,24.75,28.49,14.85,46.71,1017.11,2048.53,3479.04,3078.00,3491.99,600.03,604.65,45.00,0000 0000 0000 0000 000000
2016-06-16 11:00:14,0.00,0.29,0.00,18.99,24.75,28.46,14.82,46.61,1017.12,2048.64,3479.04,3078.00,3491.99,599.75,604.24,45.05,0000 0000 0000 0000 000000
2016-06-16 11:05:16,0.01,0.29,0.00,18.98,24.73,28.50,14.84,46.48,1017.12,2048.75,3479.03,3078.00,3491.99,600.17,604.74,45.10,0000 0000 0000 0000 000000
2016-06-16 11:10:17,0.01,0.29,0.00,18.95,24.72,28.51,14.85,46.69,1017.11,2048.89,3479.03,3078.00,3491.99,599.76,604.36,45.15,0000 0000 0000 0000 000000
2016-06-16 11:15:19,0.00,0.29,0.00,18.92,24.72,28.48,14.84,46.67,1017.12,2048.92,3479.02,3078.00,3491.99,600.16,604.77,45.20,0000 0000 0000 0000 000000
2016-06-16 11:20:20,-0.01,0.29,0.00,18.96,24.72,28.47,14.88,46.75,1017.11,2048.87,3479.01,3078.00,3491.99,599.74,604.31,45.25,0000 0000 0000 0000 000000
2016-06-16 11:25:21,0.00,0.29,0.00,18.94,24.71,28.46,14.79,46.52,1017.11,2048.88,3479.00,3078.00,3491.99,600.10,604.76,45.30,0000 0000 0000 0000 000000
2016-06-16 11:30:22,0.01,0.29,0.00,18.91,24.70,28.45,14.83,46.52,1017.11,2048.94,3479.00,3078.00,3491.98,600.00,604.69,45.35,0000 0000 0000 0000 000000
2016-06-16 11:35:23,-0.00,0.29,0.00,18.90,24.70,28.47,14.84,46.61,1017.11,2048.95,3479.00,3078.00,3491.99,600.13,604.82,45.40,0000 0000 0000 0000 000000
2016-06-16 11:40:25,0.00,0.29,0.00,18.88,24.70,28.44,14.83,46.67,1017.11,2048.96,3479.00,3078.00,3491.98,599.70,604.46,45.45,0000 0000 0000 0000 000000
2016-06-16 11:45:26,-0.00,0.29,0.00,18.87,24.68,28.48,14.89,46.77,1017.11,2048.93,3478.99,3078.00,3491.98,600.09,604.77,45.50,0000 0000 0000 0000 000000
2016-06-16 11:50:27,-0.00,0.29,0.00,18.85,24.67,28.47,14.92,46.79,1017.11,2048.97,3478.99,3078.00,3491.99,600.15,604.96,45.55,0000 0000 0000 0000 000000
2016-06-16 11:55:28,0.00,0.29,0.00,18.86,24.67,28.45,14.88,46.65,1017.11,2048.98,3478.99,3078.00,3491.99,600.29,604.99,45.60,0000 0000 0000 0000 000000
2016-06-16 12:00:29,0.00,0.29,0.00,18.81,24.67,28.44,14.77,46.83,1017.12,2048.99,3478.99,3078.00,3491.99,599.95,604.90,45.65,0000 0000 0000 0000 000000
2016-06-16 12:05:31,0.00,0.29,0.00,18.80,24.65,28.41,14.88,46.67,1017.11,2048.99,3478.99,3078.01,3491.99,600.12,604.90,45.70,0000 0000 0000 0000 000000
2016-06-16 12:10:32,0.00,0.29,0.00,18.81,24.65,28.45,14.84,46.63,1017.11,2048.99,3478.98,3078.01,3491.99,599.85,604.82,45.76,0000 0000 0000 0000 000000
2016-06-16 12:15:33,0.00,0.29,0.00,18.82,24.64,28.45,14.87,46.63,1017.11,2048.99,3478.98,3078.01,3491.99,600.06,604.94,45.81,0000 0000 0000 0000 000000
2016-06-16 12:20:34,0.00,0.29,0.00,18.77,24.62,28.44,14.91,46.52,1017.10,2048.99,3478.98,3078.01,3491.99,600.06,604.92,45.86,0000 0000 0000 0000 000000
2016-06-16 12:25:36,0.00,0.29,0.00,18.77,24.62,28.41,14.90,46.76,1017.10,2048.99,3478.98,3078.03,3491.99,600.04,604.96,45.91,0000 0000 0000 0000 000000
2016-06-16 12:30:37,0.00,0.29,0.00,18.78,24.61,28.39,14.74,46.60,1017.09,2048.99,3478.97,3078.02,3491.99,599.24,604.11,45.96,0000 0000 0000 0000 000000
2016-06-16 12:35:38,0.00,0.29,0.00,18.74,24.60,28.41,14.82,46.61,1017.09,2049.00,3478.99,3078.04,3492.00,599.91,604.84,46.01,0000 0000 0000 0000 000000
2016-06-16 12:40:39,0.00,0.29,0.00,18.73,24.60,28.42,14.80,46.51,1017.07,2049.02,3478.99,3078.19,3492.01,600.17,605.22,46.06,0000 0000 0000 0000 000000
2016-06-16 12:45:41,0.00,0.29,0.00,18.73,24.58,28.36,14.86,46.75,1017.02,2049.04,3478.99,3078.11,3492.01,599.98,604.88,46.11,0000 0000 0000 0000 000000
2016-06-16 12:50:42,0.00,0.29,0.00,18.69,24.57,28.34,14.82,46.60,1017.04,2049.02,3478.98,3078.11,3492.00,599.87,605.00,46.16,0000 0000 0000 0000 000000
2016-06-16 12:55:44,-0.00,0.29,0.00,18.67,24.56,28.34,14.85,46.69,1016.98,2049.05,3478.99,3078.20,3492.02,599.96,604.92,46.21,0000 0000 0000 0000 000000